Date String (YYYY-MM-DD hh:mm:ss) UTC,Instrument flags,Ambient pressure (hPa),Sample flow (lpm),Bypass flow (lpm),Sample temperature (°C),Ambient temperature (°C),ASC tube jacket temperature (°C),LED temperature (°C),Box temperature (°C),Sample RH (%),Span deviation,Mass concentration (μg/m³),Mass concentration (μg/m³),Mass concentration (μg/m³)
DateTimeUTC,F1_M11,P_M11,Q1_M11,Q2_M11,T1_M11,T2_M11,T3_M11,T4_M11,T5_M11,U1_M11,ZSPAN_M11,X0_M11,X2_M11,X1_M11
2021-10-06 21:00:00,,0824.3,4.99,0.00,29.8,28.8,00.0,38.6,31.6,17.8,0000.6,0022.05,0007.42,0005.77
2021-10-06 21:01:00,,0824.3,5.01,0.00,29.7,26.9,00.0,38.6,31.1,17.9,0000.7,0021.62,0007.45,0005.78
2021-10-06 21:02:00,,0824.2,4.99,0.00,29.5,25.6,00.0,38.6,30.7,18.1,0001.0,0021.41,0007.50,0005.83
2021-10-06 21:03:00,,0824.2,5.01,0.00,29.4,25.9,00.0,38.6,30.8,18.3,0000.7,0022.25,0007.63,0005.88
2021-10-06 21:04:00,,0824.2,5.00,0.00,29.3,26.4,00.0,38.5,30.9,18.4,0000.6,0022.56,0007.69,0005.91
2021-10-06 21:05:00,,0824.2,5.00,0.00,29.3,26.9,00.0,38.5,31.0,18.4,0001.0,0023.47,0007.69,0005.93
2021-10-06 21:06:00,,0824.2,5.00,0.00,29.3,27.3,00.0,38.5,31.1,18.5,0001.3,0023.15,0007.74,0005.96
2021-10-06 21:07:00,,0824.2,5.00,0.00,29.4,27.7,00.0,38.5,31.2,18.3,0000.9,0024.14,0007.79,0005.98
2021-10-06 21:08:00,,0824.2,5.01,0.00,29.4,28.0,00.0,38.5,31.2,18.2,0001.2,0024.64,0007.84,0005.99
2021-10-06 21:09:00,,0824.2,5.00,0.00,29.5,28.2,00.0,38.5,31.3,18.1,0001.0,0025.04,0007.82,0006.00
2021-10-06 21:10:00,,0824.2,4.99,0.00,29.5,28.4,00.0,38.5,31.4,18.0,0001.6,0025.06,0007.75,0005.99
2021-10-06 21:11:00,,0824.2,5.00,0.00,29.6,28.6,00.0,38.5,31.4,18.0,0001.7,0025.95,0007.69,0005.98
2021-10-06 21:12:00,,0824.3,5.01,0.00,29.6,28.7,00.0,38.5,31.5,18.1,0001.3,0024.94,0007.68,0005.98
2021-10-06 21:13:00,,0824.3,5.01,0.00,29.7,28.9,00.0,38.5,31.6,17.9,0000.7,0023.70,0007.57,0005.95
2021-10-06 21:14:00,,0824.2,5.00,0.00,29.7,29.0,00.0,38.6,31.6,17.8,0001.3,0023.83,0007.45,0005.90
2021-10-06 21:15:00,,0824.3,5.00,0.00,29.8,29.1,00.0,38.6,31.7,17.8,0002.0,0024.48,0007.41,0005.87
2021-10-06 21:16:00,,0824.2,5.00,0.00,29.8,27.9,00.0,38.6,31.4,17.8,0002.1,0023.70,0007.39,0005.84
2021-10-06 21:17:00,,0824.2,5.00,0.00,29.6,25.9,00.0,38.6,30.8,18.1,0001.8,0023.91,0007.36,0005.80
2021-10-06 21:18:00,,0824.2,5.00,0.00,29.4,25.7,00.0,38.6,30.7,18.2,0002.2,0022.92,0007.30,0005.76
2021-10-06 21:19:00,,0824.2,4.99,0.00,29.4,26.1,00.0,38.6,30.8,18.4,0002.5,0023.04,0007.24,0005.70
2021-10-06 21:20:00,,0824.2,4.99,0.00,29.3,26.6,00.0,38.5,30.9,18.7,0002.2,0022.67,0007.20,0005.65
2021-10-06 21:21:00,,0824.2,5.00,0.00,29.3,27.1,00.0,38.5,31.0,18.6,0001.7,0022.88,0007.16,0005.58
2021-10-06 21:22:00,,0824.1,4.99,0.00,29.4,27.5,00.0,38.5,31.1,18.5,0001.5,0022.24,0007.12,0005.52
2021-10-06 21:23:00,,0824.1,5.01,0.00,29.4,27.8,00.0,38.5,31.2,18.6,0001.4,0022.80,0007.06,0005.47
2021-10-06 21:24:00,,0824.1,4.99,0.00,29.4,28.1,00.0,38.5,31.3,18.5,0001.6,0024.06,0007.11,0005.44
2021-10-06 21:25:00,,0824.1,5.01,0.00,29.5,28.3,00.0,38.5,31.3,18.3,0001.4,0023.63,0007.12,0005.40
2021-10-06 21:26:00,,0824.1,4.99,0.00,29.5,28.5,00.0,38.5,31.4,18.5,0001.0,0021.98,0007.06,0005.37
2021-10-06 21:27:00,,0824.1,4.99,0.00,29.6,28.7,00.0,38.5,31.5,18.3,0001.0,0022.45,0006.98,0005.35
2021-10-06 21:28:00,,0824.1,5.01,0.00,29.6,28.8,00.0,38.5,31.5,18.3,0001.2,0022.30,0006.87,0005.33
2021-10-06 21:29:00,,0824.1,4.99,0.00,29.7,28.9,00.0,38.6,31.6,18.2,0000.3,0024.05,0006.85,0005.32
2021-10-06 21:30:00,,0824.1,5.01,0.00,29.7,29.0,00.0,38.6,31.7,18.2,-000.1,0023.64,0006.90,0005.31
2021-10-06 21:31:00,,0824.1,5.01,0.00,29.8,29.1,00.0,38.6,31.7,18.1,0000.3,0023.07,0006.96,0005.31
2021-10-06 21:32:00,,0824.1,5.00,0.00,29.8,28.0,00.0,38.7,31.5,18.1,0000.7,0022.21,0006.95,0005.31
2021-10-06 21:33:00,,0824.1,5.00,0.00,29.6,26.0,00.0,38.6,30.9,18.4,0000.6,0021.61,0006.93,0005.29
2021-10-06 21:34:00,,0824.1,5.00,0.00,29.5,25.7,00.0,38.6,30.7,18.7,0000.6,0022.58,0006.97,0005.28
2021-10-06 21:35:00,,0824.1,5.00,0.00,29.4,26.1,00.0,38.6,30.8,18.4,0001.0,0022.03,0006.90,0005.26
2021-10-06 21:36:00,,0824.1,5.00,0.00,29.3,26.6,00.0,38.5,30.9,18.5,0001.5,0022.58,0006.87,0005.24
2021-10-06 21:37:00,,0824.1,4.99,0.00,29.3,27.1,00.0,38.5,31.0,18.7,0001.7,0023.72,0006.90,0005.22
2021-10-06 21:38:00,,0824.1,5.02,0.00,29.4,27.5,00.0,38.5,31.1,18.6,0001.6,0024.52,0006.98,0005.22
2021-10-06 21:39:00,,0824.1,4.99,0.00,29.4,27.8,00.0,38.5,31.2,18.7,0001.6,0025.34,0007.01,0005.21
2021-10-06 21:40:00,,0824.1,5.01,0.00,29.4,28.1,00.0,38.5,31.3,18.8,0002.1,0025.17,0007.05,0005.20
2021-10-06 21:41:00,,0824.1,4.99,0.00,29.5,28.3,00.0,38.5,31.3,18.6,0002.5,0024.70,0007.00,0005.19
2021-10-06 21:42:00,,0824.1,4.99,0.00,29.5,28.5,00.0,38.5,31.4,18.5,0002.0,0025.28,0007.00,0005.21
2021-10-06 21:43:00,,0824.1,4.99,0.00,29.6,28.6,00.0,38.5,31.5,18.4,0001.5,0025.59,0006.99,0005.23
2021-10-06 21:44:00,,0824.2,5.00,0.00,29.6,28.8,00.0,38.5,31.5,18.6,0002.9,0026.06,0006.98,0005.27
2021-10-06 21:45:00,,0824.2,5.01,0.00,29.7,28.9,00.0,38.6,31.6,18.2,0003.2,0024.75,0007.01,0005.37
2021-10-06 21:46:00,,0824.2,5.00,0.00,29.7,29.0,00.0,38.6,31.7,18.2,0003.7,0024.80,0007.15,0005.51
2021-10-06 21:47:00,,0824.3,4.99,0.00,29.8,29.1,00.0,38.6,31.7,18.1,0003.5,0024.04,0007.27,0005.60
2021-10-06 21:48:00,,0824.3,5.01,0.00,29.8,27.9,00.0,38.7,31.3,18.1,0003.3,0023.18,0007.31,0005.68
2021-10-06 21:49:00,,0824.2,4.96,0.00,29.6,25.9,00.0,38.6,30.7,18.3,0003.4,0021.80,0007.31,0005.74
2021-10-06 21:50:00,,0824.2,5.00,0.00,29.4,25.6,00.0,38.6,30.7,18.6,0003.2,0021.84,0007.34,0005.76
2021-10-06 21:51:00,,0824.3,5.00,0.00,29.3,26.1,00.0,38.6,30.8,18.7,0003.1,0020.13,0007.38,0005.78
2021-10-06 21:52:00,,0824.3,5.00,0.00,29.3,26.5,00.0,38.5,30.9,18.7,0003.1,0020.80,0007.43,0005.80
2021-10-06 21:53:00,,0824.3,5.02,0.00,29.3,27.0,00.0,38.5,31.0,18.7,0003.2,0020.08,0007.41,0005.77
2021-10-06 21:54:00,,0824.3,4.99,0.00,29.3,27.4,00.0,38.5,31.1,18.7,0003.0,0019.06,0007.38,0005.75
2021-10-06 21:55:00,,0824.3,4.99,0.00,29.4,27.8,00.0,38.5,31.2,18.6,0002.9,0018.94,0007.39,0005.72
2021-10-06 21:56:00,,0824.3,5.01,0.00,29.4,28.1,00.0,38.5,31.2,18.5,0002.8,0018.77,0007.32,0005.63
2021-10-06 21:57:00,,0824.3,4.99,0.00,29.5,28.3,00.0,38.5,31.3,18.4,0002.4,0019.28,0007.13,0005.47
2021-10-06 21:58:00,,0824.3,5.00,0.00,29.5,28.5,00.0,38.5,31.4,18.3,0002.1,0020.39,0007.00,0005.37
2021-10-06 21:59:00,,0824.2,5.00,0.00,29.6,28.6,00.0,38.5,31.4,18.3,0001.7,0020.22,0006.97,0005.28
